Location: Saratoga Springs
(43.0831°N, 73.7850°W)
Time: 15:48:59
(UTC-04:00)

Tiros 1 - Pass Details

Date: 19 April 2024
Orbit: 620 x 651 km, 48.4° (Epoch: 16 May)

Event Time Altitude Azimuth Distance (km) Brightness Sun altitude
Rises 07:20:01 0° 294° (WNW) 2,895 10.0 12.5°
Reaches altitude 10° 07:22:23 10° 288° (WNW) 1,985 9.1 12.9°
Maximum altitude 07:26:46 48° 215° (SW) 812 7.6 13.7°
Drops below altitude 10° 07:31:08 10° 141° (SE) 1,980 10.3 14.5°
Sets 07:33:30 0° 136° (SE) 2,886 11.2 14.9°
